MDT,Max TemperatureF,Mean TemperatureF,Min TemperatureF,Max Dew PointF,MeanDew PointF,Min DewpointF,Max Humidity, Mean Humidity, Min Humidity, Max Sea Level PressureIn, Mean Sea Level PressureIn, Min Sea Level PressureIn, Max VisibilityMiles, Mean VisibilityMiles, Min VisibilityMiles, Max Wind SpeedMPH, Mean Wind SpeedMPH, Max Gust SpeedMPH,PrecipitationIn, CloudCover, Events, WindDirDegrees
2012-10-1,83,57,31,39,33,30,96,56,16,30.29,29.99,29.62,10,10,10,29,11,37,0.00,0,,228
2012-10-2,67,54,41,43,37,30,86,56,26,30.03,29.83,29.62,10,9,4,25,9,33,0.33,4,Rain,22
2012-10-3,48,43,38,37,36,33,92,79,65,30.55,30.33,30.06,10,9,5,22,11,28,0.46,8,Rain,7
2012-10-4,47,40,32,36,32,25,96,71,45,30.52,30.46,30.40,10,10,9,13,4,15,0.02,7,Rain,293
2012-10-5,46,37,27,34,30,23,100,71,41,30.52,30.45,30.38,10,9,0,16,3,21,0.00,5,Fog,86
2012-10-6,55,39,23,36,28,21,92,64,35,30.47,30.28,30.13,10,10,10,25,8,30,0.00,3,,246
2012-10-7,67,51,34,38,35,32,92,60,28,30.14,29.95,29.83,10,10,10,26,12,30,0.00,1,,252
2012-10-8,50,45,40,43,36,28,82,70,57,30.10,29.99,29.87,10,10,10,20,11,23,T,8,Rain,290
2012-10-9,54,46,37,37,34,32,92,69,46,30.17,30.08,29.96,10,10,10,17,8,22,0.01,7,Rain,249
2012-10-10,60,47,33,37,33,28,86,65,44,30.28,30.04,29.87,10,10,10,23,14,30,T,5,Snow,348
2012-10-11,45,35,25,31,28,25,92,75,58,30.38,30.23,29.98,10,9,4,15,8,18,T,6,Snow,73
2012-10-12,74,49,23,37,26,21,92,56,20,29.97,29.78,29.59,10,4,0,20,7,24,0.00,3,Fog,255
2012-10-13,70,56,42,38,35,31,70,48,26,29.99,29.85,29.71,10,10,10,25,12,40,0.00,2,,248
2012-10-14,73,56,39,41,38,35,85,58,31,30.06,29.91,29.68,10,10,10,35,16,43,0.00,1,,237
2012-10-15,68,56,43,43,39,37,71,54,37,29.71,29.69,29.64,10,10,10,26,11,32,T,3,,243
2012-10-16,63,52,41,48,39,30,86,60,33,29.70,29.41,29.24,10,10,5,49,23,62,0.02,5,Rain-Thunderstorm,247
2012-10-17,52,40,27,35,23,12,79,50,21,30.20,29.95,29.69,10,10,10,33,14,48,0.00,2,,275
2012-10-18,57,38,19,25,21,16,84,54,24,30.28,30.15,29.94,10,10,10,17,7,22,0.00,0,,219
2012-10-19,70,50,29,37,32,25,82,55,28,29.92,29.64,29.48,10,10,10,38,15,46,T,0,,214
2012-10-20,60,43,26,37,28,9,71,44,16,29.81,29.57,29.43,10,10,10,37,16,46,0.00,2,,252
2012-10-21,50,36,21,29,22,17,100,65,29,30.03,29.94,29.84,10,6,0,14,6,17,0.00,2,Fog,68
2012-10-22,49,39,28,37,33,24,100,78,56,29.97,29.82,29.67,10,9,4,25,11,31,0.25,6,Rain,74
2012-10-23,34,29,24,34,24,17,100,84,68,30.12,29.85,29.65,10,10,5,33,18,43,0.01,8,Rain-Snow,249
2012-10-24,29,25,21,19,17,16,81,75,68,30.24,30.16,30.02,10,10,10,16,12,,0.00,7,,264
2012-10-25,28,27,26,19,16,14,68,63,57,30.56,30.47,30.32,10,10,10,17,10,21,0.00,8,,304
2012-10-26,33,24,15,23,20,11,88,71,53,30.55,30.30,30.16,10,6,1,15,6,16,T,7,Snow,70
2012-10-27,32,28,23,27,23,20,92,85,78,30.25,30.17,30.02,10,10,7,17,11,20,T,8,Snow,77
2012-10-28,43,35,27,36,30,26,100,88,76,30.04,29.89,29.78,10,8,0,13,5,15,T,5,Fog-Rain,79
2012-10-29,49,38,27,42,32,26,100,88,76,29.97,29.89,29.79,10,6,0,21,6,26,0.02,5,Fog-Rain,340
2012-10-30,66,51,35,38,35,32,89,61,32,30.02,29.93,29.85,10,10,10,23,11,28,T,2,,246
2012-10-31,40,36,32,33,31,28,92,81,70,30.19,30.08,29.96,10,10,9,20,10,24,T,6,Rain,52